sat.trackr.live / text

‹ back to catalog

STARLINK-5753

NORAD 55581 · 2023-020N

PAYLOAD ACTIVE UNKNOWN

§ Identity

Operator
Country
US
Launch date
2023-02-12
Launch site
AFETR
Launch vehicle
Mass (kg)
RCS (m²)

Purposes: comms

External: N2YO · Heavens-Above · Gunter

§ Orbital elements

Epoch: 2026-05-25T03:17:18.019104Z

Period
94.27 min
Inclination
43.0028°
Eccentricity
0.0001093
Mean motion
15.27574620 rev/d
Perigee alt
482.3 km
Apogee alt
483.8 km
Semi-major
6,861.2 km
B*
2.3411e-6
RAAN
300.3554°
Arg perigee
272.4842°
Mean anomaly
87.5884°
Rev number
18,052

§ Raw data

STARLINK-57531 55581U 23020N   26145.13701411 -.00000198  00000+0  23411-5 0  99912 55581  43.0028 300.3554 0001093 272.4842  87.5884 15.27574620180520

JSON: /api/v1/satellites/55581 · /tle

For live sub-satellite position, see the globe view (requires WebGL).

§ Visibility from observer

Set your observer location to see the next 7 days of passes ≥ 10°. The values pass through the URL so the page stays shareable.

No JS? Fill the form by hand. The geolocation button needs JavaScript.